Theta_e
322 322 322 321 325 333 336 337 338 341 341 341 338 337 338 337 339 337 338 336 335 331 329 327 326 325 325 326 324 325 327 328 329 330 330 329 331 329 329 331 332 331 331 332 332 333 334 336 336 336 338 338 336 334 334 333 334 333 332 330 332 334 333 334 334 335 332 330 334 333 335 334 333 330 329 332 334 332 331 330 330 331 331 332 332
322 323 326 324 328 333 334 336 337 336 338 339 338 337 338 338 338 337 337 334 332 332 329 328 328 326 324 323 323 322 321 323 324 328 327 328 327 327 328 328 329 330 329 331 331 330 331 331 333 333 336 335 335 334 332 333 332 331 331 329 332 332 331 332 335 334 325 326 325 328 331 334 332 331 329 328 330 333 332 331 332 331 330 332 333
321 322 324 327 328 332 333 335 336 336 337 337 337 337 337 337 337 337 335 331 331 333 330 327 327 328 327 324 324 324 327 329 325 325 326 323 326 326 326 328 328 328 329 329 328 329 329 329 330 331 332 336 334 332 333 332 333 330 330 329 332 332 331 331 330 331 326 326 326 325 323 322 330 331 331 331 332 331 333 333 332 331 330 330 331
322 320 324 322 325 331 331 333 335 335 335 336 336 336 336 335 337 337 334 332 332 332 329 330 330 330 330 328 328 326 324 324 326 326 325 326 326 328 328 330 329 328 328 326 328 328 328 328 329 330 331 337 336 333 333 330 333 335 331 330 330 326 326 329 330 330 326 325 319 319 321 323 318 322 325 330 330 335 333 332 332 330 333 333 329
321 323 327 327 327 330 330 332 334 334 334 334 336 335 334 334 336 336 334 332 331 330 331 331 330 330 329 330 328 324 323 322 323 323 325 325 327 328 328 328 327 326 327 328 326 326 327 328 328 330 330 330 331 330 331 332 330 333 334 332 330 329 326 329 331 332 329 331 327 320 319 318 318 325 326 329 333 332 332 332 332 330 331 333 331
320 321 323 327 329 330 331 331 331 332 333 335 337 335 335 334 337 335 333 332 330 330 333 329 325 324 322 320 317 318 318 320 320 320 321 323 321 328 328 327 326 328 328 328 326 326 327 326 327 327 328 329 329 328 328 328 329 329 332 331 329 331 330 325 324 328 329 331 332 331 327 322 321 325 323 318 333 334 332 332 332 330 332 330 332
320 323 322 327 327 329 331 331 331 331 333 336 337 336 335 334 337 335 333 331 330 330 332 326 324 323 322 320 319 319 318 322 324 325 324 322 326 327 325 329 327 327 327 327 327 327 326 326 326 327 326 328 327 327 325 326 324 325 327 329 328 330 331 328 327 326 330 330 330 331 332 330 329 323 320 322 319 328 330 328 330 332 332 330 330
316 318 320 324 327 328 329 331 332 331 334 335 336 335 335 332 337 334 332 330 331 331 330 326 324 324 322 321 320 320 320 323 324 325 326 326 324 325 325 326 327 327 327 325 327 327 327 326 326 326 325 325 324 325 327 326 327 326 327 327 327 327 329 328 326 327 326 326 329 329 328 329 328 329 328 323 321 317 321 329 332 331 331 333 333
316 317 319 320 325 329 330 330 333 333 333 334 335 335 334 333 336 334 331 331 331 330 328 326 326 324 322 322 319 322 323 322 323 323 323 326 325 325 326 325 327 327 325 325 325 324 326 326 326 325 323 323 322 322 323 324 325 325 325 324 324 324 326 326 325 324 325 323 324 326 325 326 326 327 327 328 319 317 318 320 323 331 330 332 335
314 314 316 319 323 326 331 332 331 332 333 335 335 335 333 333 335 332 331 331 331 330 329 327 327 325 322 323 321 321 321 320 322 321 323 324 324 325 325 324 323 323 324 323 322 321 321 322 320 320 321 319 318 318 319 321 323 322 324 326 326 324 324 324 323 322 322 323 322 323 320 320 320 322 323 325 321 321 316 317 322 324 324 330 334
312 313 315 317 320 323 327 330 331 331 333 333 334 333 332 332 334 331 331 330 331 329 328 327 327 326 322 323 322 322 321 321 321 321 321 324 323 323 323 323 323 322 322 322 322 321 322 321 321 320 320 321 319 318 320 318 320 321 322 323 323 323 323 323 322 321 322 321 321 319 318 318 318 317 318 319 318 316 315 316 318 318 319 323 331
313 314 315 317 317 320 325 327 330 330 330 331 333 332 331 332 332 331 331 330 330 329 328 327 326 326 324 324 323 323 322 321 322 321 321 323 323 322 323 322 322 321 321 320 323 322 321 320 321 321 320 320 319 320 320 319 320 321 321 321 321 321 322 321 321 320 321 320 319 319 318 317 319 317 317 318 316 315 315 313 311 312 313 315 320
314 315 315 315 316 318 322 327 330 330 328 330 331 332 331 332 331 329 329 329 330 330 327 327 327 326 325 324 324 324 323 322 323 322 322 321 322 322 322 321 321 320 320 320 322 323 322 321 321 319 320 320 320 319 320 320 320 320 320 320 320 320 319 320 317 318 318 317 316 317 316 317 318 318 317 317 316 316 314 311 312 314 312 313 314
315 316 317 318 319 318 322 326 328 328 329 329 330 330 330 331 330 328 329 329 330 329 325 326 327 327 326 325 324 324 323 323 323 322 323 322 322 322 322 321 321 321 320 321 322 322 322 323 322 321 320 320 320 321 321 320 320 317 318 319 319 320 321 320 319 319 319 318 318 316 315 314 315 317 316 316 316 314 312 312 312 310 311 309 311
316 319 318 319 322 323 324 325 326 327 329 328 329 329 329 330 329 327 328 328 329 329 327 326 325 327 326 326 324 324 323 322 321 322 323 322 323 323 322 322 322 323 320 322 322 323 323 323 322 321 320 320 320 320 320 320 320 318 319 320 320 319 319 318 317 319 318 317 317 316 317 316 314 315 314 315 314 314 314 314 311 307 308 310 309
316 319 320 320 322 323 324 325 325 325 326 327 328 328 328 328 329 327 328 328 329 329 327 325 326 327 328 327 327 326 324 323 321 322 323 323 324 323 322 323 324 323 324 323 322 324 323 322 321 321 321 319 320 319 319 318 319 318 317 318 316 317 319 319 319 318 318 318 316 317 318 314 316 314 314 315 314 315 313 313 313 312 308 306 309
315 317 319 321 322 322 323 323 323 324 325 326 327 327 328 328 328 328 329 328 328 329 328 326 326 327 328 327 328 328 327 325 322 323 325 325 325 325 322 323 325 325 324 324 322 324 324 323 321 321 321 321 321 319 319 319 319 319 319 318 318 319 318 317 318 317 317 316 316 316 315 315 313 315 317 315 315 316 315 314 313 311 311 307 305
315 316 319 319 320 321 322 323 324 324 324 326 326 327 328 328 326 326 325 326 328 329 328 327 326 326 327 328 328 328 328 327 326 324 325 325 324 324 324 323 323 325 325 325 323 323 324 322 322 321 321 321 321 320 318 318 319 318 318 318 317 318 317 317 317 316 316 316 315 314 315 314 313 315 314 316 316 315 313 314 313 313 313 309 308
314 315 316 317 319 320 322 323 323 324 325 325 324 325 326 326 326 328 327 328 328 328 328 327 327 327 328 328 329 329 329 328 327 327 327 326 325 323 323 323 324 325 325 325 323 323 323 322 323 322 321 320 320 319 319 318 318 317 317 316 317 318 316 316 316 316 316 316 314 315 314 313 313 314 316 316 316 315 315 313 313 314 314 314 311
312 314 315 315 316 318 319 321 321 323 323 324 324 324 325 326 326 326 327 327 327 326 327 327 327 327 328 328 328 327 327 326 327 327 326 326 325 324 322 323 324 324 325 326 322 322 322 322 321 321 321 320 319 319 319 318 318 318 316 316 316 316 315 315 315 315 314 315 314 314 313 312 313 311 313 314 313 314 316 312 312 311 312 314 313
312 313 314 316 317 317 317 318 319 319 320 323 323 323 323 323 323 324 324 324 324 324 324 325 327 326 327 327 326 326 327 326 326 327 328 327 327 324 321 324 324 325 325 325 322 322 321 321 321 320 320 320 319 319 318 319 317 318 317 317 315 314 313 314 314 312 312 313 311 311 311 314 314 313 313 312 311 312 313 313 314 312 311 311 311
312 312 313 313 315 316 317 317 317 317 317 316 319 321 322 323 323 324 323 323 322 323 323 324 326 326 325 325 325 328 328 328 327 327 328 327 326 325 323 323 324 325 324 324 323 322 322 322 320 320 320 319 319 319 318 319 317 317 317 317 315 313 313 313 313 312 313 311 312 311 310 311 312 310 311 310 310 310 309 308 309 311 310 311 312
310 310 310 311 312 313 313 314 316 317 317 316 316 316 317 318 320 322 322 322 322 321 322 324 324 324 325 325 325 325 325 326 327 325 326 326 325 327 327 325 322 324 324 324 324 323 322 322 321 321 320 319 319 318 319 318 317 317 315 315 315 314 313 313 312 311 310 312 311 312 311 312 313 311 312 312 312 310 311 309 310 310 310 310 310
310 310 310 310 310 311 310 311 311 312 313 313 315 315 315 314 315 317 319 320 321 321 323 323 322 324 325 325 325 326 326 325 325 324 324 327 327 326 325 325 324 323 323 324 322 322 322 322 321 321 320 319 319 319 318 317 316 316 316 314 314 314 314 314 312 311 310 310 311 310 311 311 311 310 310 310 309 310 310 310 309 309 309 309 312
309 309 309 309 309 308 308 308 309 309 311 312 312 311 311 313 313 314 315 315 317 319 321 322 324 323 324 324 325 325 325 327 326 326 327 327 325 324 325 323 323 323 323 323 323 322 322 321 322 321 320 320 320 319 318 317 317 317 316 315 314 313 313 313 312 311 311 309 310 310 309 309 309 309 310 310 310 310 307 307 307 307 307 308 309
309 309 309 309 308 308 308 309 308 309 309 309 310 311 311 311 312 313 312 313 313 314 316 318 320 322 323 323 324 324 324 325 325 325 326 327 327 327 325 326 323 322 322 322 321 321 321 321 321 321 321 321 320 320 319 317 316 317 316 316 314 313 313 312 312 311 310 311 309 309 309 309 308 308 308 309 309 309 308 308 308 307 307 308 308
308 308 308 309 309 309 308 309 308 309 309 309 309 309 310 311 311 311 311 312 312 313 313 313 314 314 315 317 319 322 324 324 325 326 327 327 326 327 325 325 324 323 323 320 321 322 322 321 321 321 321 321 321 320 319 318 317 316 316 314 314 313 312 312 312 310 309 309 308 308 308 308 307 307 307 307 308 309 308 308 308 309 308 308 308
307 308 307 307 308 309 309 309 308 308 308 309 309 310 310 311 310 310 311 312 311 312 311 311 312 314 314 312 312 313 315 317 321 324 326 326 326 326 325 324 323 324 324 322 322 322 323 322 321 322 321 321 321 320 319 318 317 317 315 314 313 313 312 312 311 309 308 308 307 306 306 306 306 307 307 307 305 304 305 304 304 305 305 305 305
305 306 307 307 307 308 308 307 307 308 308 308 308 309 310 310 310 310 311 311 312 311 311 311 311 311 311 311 313 313 315 314 315 317 318 321 324 326 324 322 321 322 323 322 323 323 323 323 323 322 321 321 320 320 319 318 317 316 315 314 313 312 312 311 309 308 308 307 306 306 306 306 305 299 296 298 299 299 299 299 301 302 303 303 304
304 305 306 307 307 307 307 307 307 307 307 306 307 307 308 309 308 309 309 309 310 310 309 309 309 310 311 311 312 313 314 315 316 317 318 320 319 320 323 324 324 323 323 323 323 323 324 323 322 322 321 321 320 321 315 307 309 315 315 314 314 312 310 309 308 307 306 306 306 306 306 305 300 299 298 295 294 294 296 299 300 301 301 301 301
304 305 305 306 306 306 306 306 306 306 306 306 306 306 307 308 307 307 308 307 307 308 307 307 307 308 309 309 310 311 312 313 314 316 318 319 319 320 321 321 323 324 324 324 323 322 322 324 321 320 319 321 323 318 300 300 301 303 313 314 311 309 308 308 307 306 306 306 306 305 306 305 302 301 301 295 294 293 293 294 294 295 297 298 297
304 304 305 304 305 305 305 305 306 305 306 306 305 305 306 306 307 306 306 307 308 308 307 307 308 307 308 307 308 309 309 310 311 312 314 316 318 319 319 320 321 322 323 324 323 322 321 321 321 319 319 319 320 299 295 296 296 298 304 311 310 308 307 306 306 305 305 305 304 305 305 305 305 304 305 303 298 294 293 293 292 292 293 292 294
303 303 303 304 303 305 306 305 305 305 305 305 305 305 306 306 306 308 307 308 307 307 307 308 308 308 307 308 307 307 308 308 309 310 312 315 316 317 319 319 319 320 322 322 322 321 321 321 320 317 317 318 314 294 294 294 294 294 296 303 308 308 306 305 306 305 304 304 304 303 304 304 304 303 301 301 303 304 295 292 293 293 293 292 291
303 303 303 304 304 305 306 306 306 306 306 307 307 306 307 308 308 307 307 307 306 307 307 307 308 308 307 308 308 307 308 308 309 310 310 311 313 314 317 319 319 319 320 321 322 321 321 320 319 318 317 317 305 295 293 293 293 292 292 296 307 306 305 305 304 304 304 303 303 303 302 302 303 303 304 303 303 303 302 302 301 301 301 299 293
303 303 303 305 305 305 306 305 306 306 306 307 306 307 308 306 307 307 307 307 307 306 307 307 307 308 308 308 308 308 308 309 309 309 310 309 310 312 315 317 317 317 317 318 320 320 320 320 319 318 317 310 303 292 292 292 292 292 290 293 305 305 303 303 303 303 303 303 303 303 302 301 302 302 303 301 301 300 300 299 299 299 300 300 302
303 303 305 305 304 304 304 305 306 305 304 305 305 306 306 306 307 307 307 307 306 306 306 307 306 307 307 308 309 309 309 308 308 308 309 309 310 312 313 316 316 316 317 317 318 319 319 319 318 318 315 303 300 291 291 291 291 291 290 301 303 303 302 302 303 303 303 303 303 302 302 302 302 302 296 291 296 299 298 297 296 297 298 300 301
304 304 304 305 305 304 305 305 305 305 305 305 306 306 306 306 306 306 306 306 306 305 305 306 306 306 307 308 309 309 308 309 308 308 307 308 309 310 312 315 315 315 315 316 316 317 318 318 317 315 314 301 297 292 290 290 290 290 293 301 303 301 302 302 303 303 303 303 304 303 303 302 302 302 294 290 290 293 297 296 296 297 298 298 299
303 303 303 304 304 304 304 304 304 304 304 304 305 306 306 305 305 305 305 305 305 305 305 306 306 306 307 308 309 308 308 308 308 307 307 308 310 311 311 314 314 313 314 314 315 316 317 317 316 315 306 301 298 293 290 290 290 290 295 301 301 302 301 302 302 303 304 303 304 304 303 301 300 301 290 290 288 294 297 296 296 296 296 296 297
301 301 301 301 303 303 302 302 303 302 304 306 305 305 304 304 304 305 305 305 305 305 306 305 306 306 307 308 308 309 308 308 308 308 308 308 309 310 311 313 314 314 314 314 314 314 315 314 313 310 300 299 296 293 290 290 290 290 295 302 301 301 301 301 302 302 302 302 302 303 299 299 300 298 289 289 288 293 296 296 296 295 294 294 295
302 302 303 302 302 302 302 302 302 303 305 305 304 304 303 303 303 304 304 304 305 305 306 306 306 306 307 308 309 309 309 309 309 310 311 310 310 310 312 313 313 313 312 312 312 312 311 307 305 301 300 298 295 294 293 289 290 290 290 299 301 297 298 299 300 300 300 301 301 301 301 292 291 289 288 288 288 289 293 295 296 294 293 292 296
301 301 299 301 301 301 301 302 302 303 304 304 304 303 303 303 303 303 303 304 306 306 306 306 306 306 306 306 307 308 308 309 310 311 311 311 312 312 312 312 312 312 312 311 311 310 306 304 303 301 299 298 297 295 293 289 290 290 288 292 298 298 298 298 298 298 298 297 297 297 298 289 288 288 289 287 289 288 289 292 293 293 294 294 291
301 300 300 300 300 301 301 301 302 303 304 304 304 303 303 303 303 303 305 306 306 306 306 306 305 305 306 306 306 308 309 310 311 311 311 311 312 313 313 312 311 311 311 310 307 304 302 300 300 301 301 300 299 297 294 290 290 290 289 289 295 297 298 297 294 295 295 296 297 297 297 290 287 287 288 288 288 288 288 291 291 289 288 288 290
300 300 300 299 299 299 299 301 301 302 302 302 302 302 302 303 302 304 305 305 305 306 306 306 305 305 306 306 307 308 309 310 310 311 310 310 311 311 312 312 311 310 309 307 304 302 300 298 298 299 299 299 299 297 292 293 289 290 289 289 289 293 290 296 294 294 295 295 297 298 298 290 289 288 288 288 288 288 289 291 289 288 288 287 288
300 300 300 299 299 299 299 300 300 301 302 302 302 301 301 302 302 304 304 304 304 305 305 305 305 305 306 306 307 307 308 309 309 309 309 309 310 310 310 310 310 307 306 304 302 301 300 298 297 297 299 298 298 298 293 291 291 289 289 289 288 287 289 294 296 295 295 296 298 299 297 289 289 289 288 288 288 288 290 288 288 288 287 288 290
299 299 299 299 298 299 299 300 300 301 302 303 303 302 301 301 303 304 303 304 304 305 305 304 305 305 306 306 307 308 308 308 309 309 308 307 309 309 308 309 308 306 304 303 302 301 299 297 296 296 297 298 299 297 296 293 290 290 289 288 288 288 287 287 294 297 298 298 294 290 289 289 289 288 288 288 288 288 287 287 287 287 288 291 291
299 299 299 298 299 299 299 299 300 301 301 301 301 302 301 302 304 304 304 304 304 304 303 304 304 304 305 306 306 307 307 307 307 308 308 308 308 307 307 307 306 305 304 302 301 299 297 297 296 296 296 297 298 297 296 296 292 291 290 288 288 288 288 288 291 295 291 290 289 288 288 287 288 289 292 294 294 294 290 289 288 289 292 292 292
297 298 298 298 299 298 299 299 299 301 301 302 302 302 302 304 304 305 305 305 304 304 303 303 304 304 305 305 305 305 305 305 307 308 308 308 308 307 306 304 304 303 303 302 299 298 297 296 296 297 297 297 296 297 296 295 295 295 295 295 292 293 289 288 292 296 294 296 296 293 292 290 290 289 289 288 289 290 291 292 293 293 293 293 293
298 298 299 298 298 298 299 299 299 300 301 301 302 302 303 303 304 304 304 304 303 303 302 303 303 304 304 304 304 297 302 306 307 307 306 305 305 305 304 302 302 301 300 299 298 297 296 296 295 295 295 294 294 295 295 295 295 294 295 296 297 297 297 296 296 294 293 293 293 290 291 294 296 295 294 294 293 293 292 292 292 292 293 292 292
297 298 298 297 298 298 299 299 299 300 301 300 301 301 302 303 303 304 304 303 302 300 301 302 303 303 303 304 305 305 306 306 306 304 304 303 303 303 302 302 304 304 301 298 297 297 295 296 298 296 294 295 296 294 291 288 291 288 290 292 293 293 292 293 291 287 290 292 293 293 292 293 292 290 290 290 291 291 291 291 292 292 292 292 291
298 299 298 298 299 299 299 299 299 300 300 300 301 301 302 302 302 303 303 302 302 301 302 303 303 303 304 304 305 304 306 305 304 299 296 293 288 290 297 298 295 291 290 291 293 297 298 298 295 293 296 295 292 291 287 287 287 287 286 286 286 286 287 288 288 286 288 289 290 291 291 291 290 290 289 289 289 289 289 289 289 289 290 290 290
298 298 298 299 299 299 299 299 299 300 300 301 301 302 302 303 304 304 304 303 303 303 303 303 303 303 303 304 304 304 304 303 300 299 297 294 293 291 288 289 290 290 289 289 289 289 290 291 294 291 289 287 287 286 287 287 287 287 286 286 286 287 287 287 287 287 289 290 291 290 290 290 290 290 289 289 289 289 288 288 288 289 289 289 289
Wind_Speed
12 14 15 18 16 12 11 12 11 10 10 10 11 10 10 9 9 9 8 7 6 6 5 4 4 3 2 2 4 3 3 4 2 4 4 4 5 4 3 3 3 3 2 1 2 2 2 4 2 4 4 4 3 4 3 5 4 4 4 5 10 6 7 6 6 5 3 3 2 2 3 2 7 8 9 7 6 7 7 7 7 7 7 8 7
18 14 16 16 13 13 10 10 11 12 10 11 11 11 10 10 10 9 8 7 6 5 4 2 3 3 4 4 3 4 5 4 4 4 3 3 3 3 3 4 3 2 2 3 3 3 1 2 3 3 5 4 3 3 5 4 3 4 4 6 7 6 5 5 2 2 3 4 2 2 2 1 5 6 9 9 6 6 8 8 8 8 9 8 7
13 13 14 14 15 15 11 10 10 11 11 11 11 11 11 10 9 9 8 8 6 5 4 4 2 3 0 4 1 5 6 6 5 5 4 5 3 3 3 2 1 2 1 1 1 2 2 3 2 2 3 2 4 6 4 3 5 6 4 4 4 4 3 4 0 4 2 3 3 2 2 2 2 3 6 6 6 6 6 6 7 9 11 10 8
16 14 17 18 15 14 12 11 11 11 11 11 11 12 10 9 9 9 9 8 7 6 4 5 4 4 5 4 5 4 6 5 5 4 4 4 5 4 4 3 3 2 1 2 1 3 2 2 2 2 1 1 2 4 1 5 3 5 6 6 4 3 4 1 2 2 1 3 2 2 1 2 3 2 2 3 4 3 6 5 6 7 13 12 9
11 12 13 15 16 15 15 13 12 12 11 12 12 11 9 11 10 10 9 8 8 8 5 6 6 5 5 5 6 7 6 5 4 4 4 4 4 4 4 3 3 3 3 4 3 1 1 2 2 3 2 1 0 1 2 2 3 1 2 4 4 1 2 1 1 1 2 3 1 2 2 2 2 1 3 2 1 2 2 2 2 4 7 8 10
9 15 12 13 14 15 14 15 14 13 12 12 11 12 11 11 11 10 9 9 9 9 7 7 6 6 6 6 6 5 5 5 4 4 4 3 5 4 4 4 4 3 3 4 4 3 2 1 2 2 3 3 1 1 1 3 3 6 1 3 6 2 0 4 2 1 3 3 3 1 1 1 0 1 2 0 0 1 1 2 3 1 5 3 6
7 8 15 13 13 14 15 15 15 14 13 12 12 12 13 12 11 11 10 9 10 10 10 7 7 6 7 6 6 6 6 4 5 4 4 4 4 4 4 3 3 4 3 3 3 3 2 3 3 3 3 2 3 4 5 6 5 6 4 3 4 4 3 2 3 2 0 1 3 2 1 3 2 3 1 1 3 1 2 2 4 2 3 3 5
6 8 7 11 12 14 15 15 14 14 13 13 12 12 14 14 13 12 10 10 9 10 10 8 8 7 7 6 6 5 6 6 6 5 4 4 4 4 4 3 3 3 3 3 3 3 3 3 2 2 2 3 2 3 3 4 5 6 7 6 5 4 3 4 4 2 2 0 2 3 3 2 5 4 3 4 2 4 3 2 2 3 3 2 4
4 4 8 11 11 12 13 14 14 14 14 14 13 13 13 13 13 13 11 10 10 12 11 10 8 8 8 6 6 5 7 7 6 6 5 5 5 3 3 4 3 3 4 3 4 4 3 3 4 4 4 3 3 4 4 5 6 5 6 5 5 4 5 4 0 4 3 3 1 2 3 5 4 5 2 2 3 4 2 1 4 1 3 5 4
5 6 6 6 7 10 12 12 13 13 13 13 13 13 14 13 14 14 13 11 11 12 11 11 10 9 8 7 8 7 7 6 6 6 5 5 5 4 4 3 4 3 3 4 4 4 4 3 4 4 4 6 6 6 5 5 5 5 5 5 4 4 4 5 5 4 3 3 3 2 3 2 3 1 3 5 2 1 4 3 4 4 3 3 3
4 4 4 4 5 7 9 12 13 13 12 13 13 13 14 14 15 15 14 11 12 13 12 11 10 9 8 8 8 8 8 7 7 6 6 5 5 5 4 4 3 4 3 3 3 4 4 4 3 4 4 3 4 4 4 5 4 5 4 4 5 6 5 4 5 5 3 3 4 3 3 3 4 4 5 5 3 4 4 4 5 5 6 5 6
5 4 4 4 5 7 7 10 12 13 13 13 13 13 14 14 15 16 15 13 13 13 13 12 10 9 9 9 9 8 8 7 7 7 7 7 6 5 4 5 5 4 3 3 3 3 3 3 3 3 4 3 3 3 3 4 4 4 4 4 4 4 4 4 4 4 4 2 3 3 3 3 2 4 5 4 4 5 5 6 6 6 7 6 1
4 4 3 3 4 5 8 9 10 12 12 13 13 12 13 14 16 17 16 14 13 13 13 13 11 10 9 9 9 8 9 8 8 8 8 7 7 6 6 5 5 5 4 4 4 4 3 3 2 2 3 3 3 4 4 5 4 4 4 5 5 6 5 5 5 5 5 6 4 2 4 3 3 3 2 3 4 3 4 5 5 6 6 6 8
5 5 5 4 2 3 6 8 10 10 11 12 12 12 12 12 15 17 16 15 13 13 14 13 12 11 10 9 9 9 9 9 8 8 8 7 6 7 6 5 5 5 5 5 5 5 4 3 2 3 3 4 3 3 3 3 2 4 5 5 5 4 4 4 4 4 4 4 4 3 4 3 4 3 3 2 2 3 4 4 5 6 6 7 6
6 7 6 4 3 1 3 5 8 9 10 11 10 11 11 11 13 16 15 15 14 14 13 14 12 11 10 9 9 8 9 8 8 7 8 7 7 7 6 5 6 6 6 5 6 5 5 4 4 4 4 4 4 3 3 3 2 3 4 4 4 4 4 4 4 4 4 4 4 4 1 2 3 3 2 3 3 4 3 3 4 5 5 5 6
6 7 6 5 3 2 2 4 5 6 8 9 9 9 9 10 12 14 14 14 13 13 13 13 12 11 11 11 10 9 8 8 8 7 8 7 7 7 6 6 5 6 7 7 7 5 5 5 5 4 4 4 3 3 3 3 3 3 3 3 3 3 3 3 3 3 4 4 5 4 3 4 3 4 5 4 4 4 4 3 3 4 5 6 5
7 7 7 5 6 4 4 4 4 4 6 7 8 8 8 8 9 12 13 12 12 12 11 12 11 11 11 11 10 9 9 9 8 8 8 8 8 7 7 7 6 7 7 8 8 7 6 6 6 6 5 4 4 4 3 3 3 2 3 3 3 2 2 3 3 3 2 3 3 3 4 2 4 3 2 3 4 3 3 4 4 4 4 5 5
9 9 8 7 7 6 6 5 6 6 7 6 7 6 6 6 9 12 11 11 11 11 10 10 11 11 11 11 10 10 9 8 8 8 8 8 8 8 7 8 8 7 8 8 8 8 8 8 6 6 6 5 5 5 5 4 4 3 4 3 3 3 3 2 1 2 2 2 2 4 3 2 4 4 4 3 3 3 3 4 4 4 4 5 5
7 8 8 7 7 7 6 7 7 7 9 9 6 4 5 5 7 7 8 9 9 8 8 8 9 8 8 10 11 10 9 9 8 7 7 8 9 9 9 9 9 9 9 9 9 9 9 8 8 8 7 7 6 5 5 5 5 4 4 3 3 4 3 3 2 2 1 1 1 1 2 1 3 2 3 2 2 2 3 4 4 3 4 4 5
8 9 9 8 7 7 8 8 9 9 9 8 7 6 6 6 7 7 8 7 7 8 7 7 8 8 8 9 10 10 10 10 9 7 8 8 8 9 9 10 10 10 10 11 10 11 10 10 9 9 8 8 8 7 6 6 5 5 5 4 4 3 4 4 4 3 2 1 1 2 0 3 2 4 3 2 3 3 2 4 4 4 4 4 4
8 8 8 9 8 8 8 7 7 9 10 7 9 8 6 6 5 6 6 7 7 6 7 5 6 7 8 9 9 8 9 9 9 9 7 7 7 9 10 9 9 10 11 12 11 12 12 11 11 10 10 9 9 8 7 7 6 6 5 5 5 4 4 4 3 2 2 1 1 1 1 1 1 3 4 4 4 3 4 4 4 4 4 4 5
8 8 8 9 9 9 9 9 9 8 9 11 11 10 9 6 6 7 6 4 0 5 5 5 5 6 7 8 8 7 8 8 9 9 7 7 5 5 9 10 9 10 11 12 13 11 12 12 11 11 11 11 10 10 9 8 8 7 6 5 5 5 5 4 3 4 3 1 1 2 2 0 2 4 4 6 5 5 5 5 5 4 4 4 4
9 9 8 9 9 9 10 11 11 11 10 10 9 9 9 9 8 6 7 7 7 6 6 5 4 6 6 6 7 7 8 9 9 9 9 7 5 4 10 9 11 9 10 11 12 12 13 13 12 12 12 11 11 11 9 9 8 8 8 7 6 6 5 4 5 4 4 4 2 2 3 2 1 3 4 5 4 5 5 6 6 5 6 6 6
8 7 7 7 8 8 8 9 10 10 10 11 9 9 10 10 8 7 8 7 6 6 7 7 6 6 6 6 7 6 6 7 7 8 10 10 7 7 8 7 9 10 10 10 12 13 12 13 13 13 13 12 12 11 10 10 10 9 9 8 8 7 6 5 5 4 3 3 3 2 3 2 3 4 4 4 5 4 4 5 6 6 6 6 5
8 8 8 7 7 8 8 8 9 9 9 8 8 9 9 10 9 8 8 5 4 4 8 5 4 7 4 4 5 5 5 2 4 4 5 8 9 10 8 8 8 10 11 12 12 12 12 13 12 13 13 13 12 12 12 11 10 9 9 8 8 7 7 6 4 3 1 3 2 3 3 2 2 4 4 4 4 5 6 6 7 7 7 6 5
7 7 7 7 6 7 7 6 7 7 8 8 8 9 9 9 8 6 7 6 6 6 8 6 1 4 5 3 3 3 4 5 5 7 6 7 9 10 10 9 10 10 9 11 13 12 12 13 13 13 13 12 12 11 12 11 11 10 9 8 8 7 7 6 5 4 4 4 3 3 2 3 2 3 4 3 4 6 6 6 7 7 8 8 8
7 7 6 6 7 7 7 7 6 6 6 6 7 8 8 7 7 6 6 6 6 6 5 3 1 1 3 3 3 2 3 4 4 4 6 6 9 12 12 10 8 10 7 11 14 15 13 13 13 13 13 13 12 12 11 11 11 11 11 10 9 8 7 6 5 5 4 4 3 3 2 2 3 3 3 3 4 5 5 6 7 7 7 8 8
6 6 7 7 7 7 6 6 6 6 6 6 6 6 6 6 6 6 6 5 4 2 1 1 1 3 3 3 4 5 5 5 3 4 5 9 9 4 3 3 8 12 9 13 13 15 13 13 13 13 13 12 12 11 13 12 11 11 11 10 9 8 8 7 6 5 5 4 4 3 4 3 3 1 3 4 4 5 5 6 6 7 8 9 9
7 7 6 7 7 6 6 6 6 6 6 5 5 6 5 5 5 5 4 4 4 3 2 1 1 1 2 2 2 2 3 5 6 7 7 9 8 8 6 4 8 11 11 14 15 14 12 14 13 13 13 12 11 11 12 12 11 12 11 10 10 9 8 7 7 6 6 5 4 4 4 4 5 5 4 3 4 4 5 6 7 7 8 8 9
7 7 7 6 7 7 6 5 5 5 4 5 4 3 4 4 4 3 3 3 2 2 1 1 0 1 0 1 2 3 5 6 6 7 8 8 7 8 7 10 14 14 13 11 12 13 12 10 13 13 12 11 10 9 9 12 12 10 11 9 8 8 8 7 7 7 6 6 5 4 4 8 5 2 5 7 7 6 6 6 7 7 8 8 9
7 7 7 7 6 6 5 5 5 4 4 3 2 2 3 4 3 2 2 1 2 3 3 2 3 2 3 3 3 4 4 6 6 6 7 7 8 7 7 8 8 9 9 10 11 11 12 7 8 15 15 6 3 2 11 12 11 11 10 9 8 8 8 7 7 6 6 6 5 5 4 9 8 8 9 11 10 10 10 10 11 11 10 8 9
8 7 7 7 6 5 5 4 4 3 3 3 2 1 3 2 3 2 2 2 2 1 2 2 3 4 4 4 4 5 6 6 6 6 6 7 6 6 7 8 7 8 9 9 9 10 10 10 5 2 2 2 3 9 14 13 11 9 7 8 8 7 7 6 6 6 5 5 5 4 3 3 5 6 4 6 12 14 14 13 13 12 13 14 12
9 8 7 6 5 5 5 3 2 3 1 2 1 1 2 1 1 1 1 1 2 2 3 3 4 4 5 5 5 6 6 6 6 7 6 6 7 6 7 7 8 7 7 7 8 8 9 9 6 9 8 7 5 9 12 13 11 10 7 6 7 7 7 7 6 6 4 3 3 4 4 4 3 8 5 9 7 7 14 15 13 15 15 15 15
7 7 6 5 3 3 3 3 1 1 2 2 2 1 1 1 1 1 2 2 3 3 3 4 4 5 5 5 6 6 7 7 7 7 7 7 7 8 7 7 7 7 7 7 7 8 8 8 8 8 9 7 9 8 12 12 11 10 5 0 5 7 5 5 5 5 4 5 5 5 5 4 4 5 5 5 5 5 5 4 7 8 10 14 18
8 6 4 3 2 1 1 0 1 2 2 3 2 0 1 2 1 2 2 3 4 4 4 4 5 5 6 6 6 6 6 7 7 8 8 8 8 8 8 7 7 7 8 7 8 9 8 8 7 8 6 8 8 12 12 12 10 9 6 2 2 5 4 4 4 5 5 5 5 5 5 6 6 6 4 2 4 6 6 6 8 10 11 12 10
10 8 3 3 2 0 1 1 1 3 3 3 2 2 3 3 3 4 4 4 5 5 6 5 6 6 7 6 6 6 6 7 7 7 8 8 8 8 8 7 7 7 7 7 6 7 9 8 9 8 7 9 8 14 13 12 11 9 7 3 4 5 4 3 5 5 5 5 6 5 6 6 6 7 7 7 3 3 7 8 10 11 11 11 11
4 4 6 5 4 4 1 0 3 3 4 4 4 4 4 5 5 5 5 5 6 6 6 6 6 7 6 6 6 6 7 7 8 8 9 9 9 9 8 7 8 7 7 7 7 7 8 9 9 8 7 9 9 10 13 13 12 10 7 5 5 5 4 6 5 6 6 6 6 6 6 6 6 6 8 10 9 4 6 9 11 11 11 11 11
6 5 6 6 3 2 3 3 4 5 6 6 6 5 5 6 7 6 6 6 7 7 7 7 8 8 7 6 7 7 7 8 8 9 9 9 9 8 8 7 8 8 8 8 7 7 7 7 8 8 10 11 10 9 12 12 12 12 6 4 5 5 5 4 4 5 5 5 6 5 4 8 9 8 10 10 10 5 7 9 11 12 12 12 11
4 5 5 5 4 4 6 7 7 8 7 6 7 7 8 8 8 7 7 7 7 8 8 8 8 8 8 8 8 8 8 8 9 9 9 10 9 9 9 7 7 8 8 7 7 6 6 3 3 6 12 12 9 9 10 11 11 10 5 3 4 2 2 3 3 4 4 5 6 7 12 9 10 6 11 8 8 5 8 9 10 11 12 13 11
9 8 7 5 5 8 9 8 7 7 8 8 8 8 9 9 8 8 9 9 9 9 9 9 9 9 9 8 7 8 8 8 9 8 8 9 8 9 9 8 8 7 7 7 6 6 6 6 7 9 8 9 10 7 9 9 8 7 4 5 1 1 3 3 4 5 5 5 5 7 7 9 3 11 9 9 6 5 6 9 9 10 12 14 11
11 9 8 8 9 9 9 9 8 9 9 9 9 9 10 9 9 9 9 9 9 9 10 10 10 10 10 10 9 9 9 9 8 8 8 8 8 8 8 8 8 8 8 5 2 4 7 7 7 8 9 8 8 9 8 8 7 6 4 2 3 3 3 4 4 5 6 6 6 7 4 12 12 10 10 4 3 4 5 8 9 11 11 11 13
11 11 10 10 10 10 11 11 11 10 10 9 10 11 10 10 9 10 9 9 10 10 10 11 11 12 12 11 11 10 9 8 8 8 8 8 8 9 8 8 7 6 6 4 6 6 7 7 7 7 8 8 8 10 8 7 8 6 6 2 2 1 3 4 5 6 7 7 7 7 1 8 9 6 5 6 8 8 9 8 10 13 13 13 13
13 13 12 12 12 12 12 11 10 11 10 11 11 12 11 10 11 11 10 10 11 11 11 12 12 12 11 11 10 11 10 8 8 8 9 9 8 9 9 7 5 6 4 6 7 7 8 8 7 6 6 7 7 8 12 8 8 8 7 6 4 3 4 4 6 7 7 7 7 8 2 7 8 5 6 7 8 10 9 9 9 10 11 12 11
16 15 15 15 14 14 13 13 12 11 11 11 11 12 11 12 13 10 10 11 11 11 12 12 12 12 11 11 11 11 10 9 10 9 8 10 9 9 9 7 5 5 6 8 7 8 8 8 8 7 6 6 6 6 9 10 8 9 8 7 6 5 5 4 5 6 7 8 8 6 8 16 13 14 11 11 11 12 11 13 15 14 15 13 10
18 18 17 16 16 16 15 14 13 12 11 11 11 13 14 14 13 11 12 12 12 11 12 12 12 12 12 11 11 11 10 9 9 8 9 8 9 8 6 3 6 7 8 9 8 9 9 8 7 7 7 6 6 7 6 9 12 10 11 9 9 10 9 7 5 5 6 7 7 9 10 9 8 9 13 14 14 14 18 18 17 17 14 9 11
20 18 18 18 16 16 15 16 16 16 15 13 13 13 15 15 13 13 13 13 12 13 13 13 12 12 12 12 12 12 13 12 11 9 8 7 5 5 6 6 6 7 9 9 10 9 9 8 8 7 7 7 7 6 6 7 8 9 9 11 13 13 11 11 11 7 9 12 12 12 13 13 14 13 11 8 9 10 10 12 13 13 9 10 9
21 20 19 17 16 15 15 16 17 15 14 13 14 14 14 13 13 13 12 12 13 14 13 12 12 12 12 11 12 10 10 10 10 7 6 4 4 5 6 5 6 8 10 10 10 10 9 9 8 8 8 7 7 7 8 7 6 6 6 7 9 8 11 9 8 7 8 7 6 6 8 12 14 16 15 14 13 12 11 10 9 9 9 9 10
19 18 18 19 18 17 17 17 15 14 14 15 14 14 14 14 14 14 14 14 14 14 14 14 13 11 10 11 11 9 9 10 6 3 2 3 3 5 6 7 8 9 10 11 10 8 7 8 8 7 7 6 6 5 6 5 5 5 4 3 3 5 3 4 5 8 8 9 9 10 12 10 7 7 7 6 7 8 9 9 9 9 9 10 11
19 19 18 17 17 17 18 18 17 15 15 15 16 15 14 15 15 16 16 16 15 16 15 14 13 12 12 10 10 10 7 6 4 2 3 3 3 6 6 4 3 6 7 8 8 8 8 7 5 5 6 5 6 7 5 6 7 7 5 4 5 5 5 5 7 8 8 8 7 7 5 7 6 6 7 7 8 8 7 9 11 10 10 10 10
18 16 17 18 18 18 18 18 16 15 15 15 16 16 15 14 14 14 14 14 14 13 14 13 12 13 12 11 7 7 3 3 6 7 7 7 13 13 5 8 8 12 16 13 9 8 8 7 7 7 6 5 5 5 6 8 8 7 5 4 3 3 4 5 7 10 7 6 7 6 5 6 7 7 8 8 8 8 9 9 8 9 9 10 9
17 17 17 17 17 17 17 17 16 15 15 15 15 15 14 14 15 13 14 14 15 13 12 12 12 12 11 9 8 6 5 6 8 9 8 10 8 11 17 15 12 13 14 15 16 17 15 10 9 7 8 13 12 11 9 8 6 5 4 4 3 4 4 7 8 5 5 4 6 7 7 7 7 8 8 8 8 9 9 9 9 9 8 8 7
Wind_Direction
168 181 197 192 192 173 156 155 157 156 157 155 158 158 157 159 154 157 154 156 165 170 180 178 163 138 133 128 117 150 100 117 78 48 55 63 19 44 36 42 16 10 332 267 216 235 242 180 201 210 200 203 195 217 242 233 254 258 250 263 250 226 223 202 217 218 226 240 202 261 281 296 304 299 289 279 261 263 248 249 237 238 219 207 216
170 191 189 189 185 166 159 159 161 162 165 165 167 164 164 162 161 156 155 163 168 182 162 166 156 141 166 144 141 144 153 165 122 110 85 76 67 47 33 20 31 23 357 340 332 301 248 239 217 207 210 209 195 193 224 226 213 233 252 241 250 264 249 229 226 187 238 238 279 281 272 214 232 269 283 274 279 292 284 263 243 247 244 223 211
187 175 188 206 179 166 166 166 169 171 169 173 170 167 168 166 165 159 159 162 163 166 164 151 128 95 213 112 130 95 55 43 72 82 91 94 82 79 48 44 12 83 42 14 320 303 334 331 288 260 257 192 190 187 191 239 214 227 220 249 264 260 275 271 214 262 227 205 243 294 292 271 171 243 256 263 261 246 255 292 311 285 252 240 221
157 175 193 194 195 170 172 174 175 177 174 174 172 174 171 173 167 163 158 165 153 159 163 120 114 109 81 94 60 71 99 90 92 91 90 100 80 45 68 39 30 51 93 174 161 32 325 321 346 338 34 270 9 78 96 190 198 171 202 207 224 266 250 130 255 205 184 228 211 228 89 281 274 224 239 277 282 320 316 342 2 345 318 322 288
177 174 195 200 189 178 179 178 177 181 180 177 175 176 176 175 168 165 161 160 155 151 153 130 129 134 120 111 106 100 116 133 137 114 106 94 101 96 83 75 71 59 34 16 49 81 323 10 33 50 21 24 93 122 171 207 146 72 165 167 170 192 197 344 136 163 197 264 360 188 189 225 256 2 335 249 354 282 352 53 66 340 320 335 338
211 177 201 201 196 189 184 180 182 184 182 179 175 176 173 174 168 167 160 160 153 153 151 152 158 153 156 152 147 150 139 149 141 127 136 118 84 106 99 78 60 42 40 45 42 38 37 142 307 136 98 72 81 80 170 126 162 170 173 89 118 135 102 177 177 235 166 170 150 210 291 293 67 3 335 36 251 163 337 57 105 64 332 350 338
227 220 190 199 197 200 193 189 186 185 184 176 173 175 174 173 168 169 163 160 156 157 157 164 163 167 172 169 156 152 145 124 103 113 99 95 106 90 96 94 91 74 54 68 61 61 45 15 30 5 40 40 40 35 6 353 14 21 57 108 105 105 126 138 125 136 231 187 165 167 151 228 221 257 269 352 328 58 100 1 356 358 231 324 319
208 212 223 224 206 202 203 196 191 186 179 176 175 174 175 174 168 171 166 162 161 159 161 170 171 168 181 178 160 157 142 124 131 118 105 107 115 123 108 113 106 88 85 85 108 91 49 63 41 37 19 58 80 64 39 33 15 36 26 21 13 40 100 117 122 128 136 135 248 176 215 240 248 235 258 263 278 301 304 298 207 245 290 240 243
244 230 202 217 210 209 204 201 197 189 182 179 175 173 171 172 168 170 168 165 161 162 165 173 177 171 181 180 167 153 132 141 142 135 133 125 129 131 106 94 84 71 78 81 74 82 85 64 44 39 28 35 68 76 58 43 39 38 31 22 27 33 23 17 65 141 145 123 205 219 228 231 194 214 256 235 217 273 247 243 300 336 276 262 259
254 245 237 221 226 215 204 201 195 192 186 178 173 170 172 171 171 172 170 168 163 164 170 174 179 175 184 182 174 152 150 150 150 138 137 146 132 130 130 124 107 117 103 77 77 78 75 84 78 62 46 38 41 56 64 66 51 46 33 35 36 41 31 29 32 31 16 29 343 343 300 254 288 261 185 238 281 178 272 250 224 249 280 250 223
307 296 282 256 217 225 215 202 191 189 186 179 174 172 174 173 172 175 172 167 165 168 173 175 182 179 186 181 176 158 156 156 146 154 148 158 146 149 157 135 133 110 113 105 75 76 70 70 69 73 69 50 62 74 57 70 75 62 57 51 36 28 43 46 37 25 15 35 347 360 360 8 357 340 4 350 358 320 318 296 289 254 230 225 209
324 316 308 294 239 210 217 205 190 186 186 183 176 173 177 176 175 173 172 171 169 171 173 176 181 184 186 181 177 164 160 165 157 164 161 164 158 159 153 153 142 132 131 127 120 91 85 79 82 89 75 73 70 68 80 83 70 70 64 57 59 50 48 43 40 36 9 46 23 9 10 0 2 349 14 351 337 334 325 317 302 302 298 295 151
354 355 335 300 275 215 201 197 187 182 184 186 181 177 180 179 179 175 173 173 170 172 176 176 180 182 186 181 180 171 172 174 167 169 171 173 167 169 162 166 152 154 154 148 140 152 122 116 117 94 90 66 58 68 65 51 63 76 80 78 58 55 51 39 47 33 23 5 17 24 347 11 22 22 346 352 344 325 312 301 299 318 313 314 303
26 19 13 10 323 213 200 193 179 176 181 187 186 182 182 183 183 180 174 175 170 175 176 178 180 181 185 184 183 178 182 179 181 174 176 181 172 169 174 167 163 165 161 167 156 172 165 143 123 105 99 105 97 81 68 76 83 103 87 68 76 76 70 78 73 63 53 33 3 11 15 12 19 1 356 317 322 330 324 328 324 311 308 292 292
42 43 27 28 25 19 177 192 189 185 189 191 190 187 184 183 186 184 175 175 173 176 177 179 179 182 183 188 186 188 185 186 189 177 177 186 178 171 184 171 169 172 169 166 164 183 162 166 147 140 140 136 128 124 119 113 88 75 81 72 69 61 58 54 64 49 53 44 28 10 327 64 7 23 347 349 340 337 327 330 323 317 306 288 285
49 52 62 59 57 87 124 177 171 188 187 192 190 187 187 188 187 189 180 176 177 178 180 181 181 181 184 188 192 196 191 190 197 186 178 187 181 174 186 180 176 168 167 164 171 178 168 166 169 160 157 155 149 146 154 128 115 105 106 113 99 93 99 84 86 80 55 33 31 0 336 39 6 21 340 24 358 355 331 311 292 292 306 307 321
56 59 44 61 94 99 113 130 152 162 174 179 183 185 184 187 186 185 185 179 180 181 182 182 181 184 185 189 194 200 200 201 201 194 182 181 183 182 184 185 178 173 167 167 177 175 173 176 180 170 172 170 169 167 158 135 146 143 118 134 123 113 91 75 51 57 60 23 32 16 354 10 40 354 356 0 352 342 325 326 311 308 317 308 305
73 73 60 43 64 83 110 125 138 140 143 152 165 164 173 191 193 191 190 184 180 181 186 182 185 187 187 191 197 201 206 211 211 202 191 184 187 186 186 184 186 179 170 170 180 178 177 181 183 179 182 182 179 178 172 162 174 156 145 155 135 132 136 122 101 73 50 47 37 17 356 13 27 344 0 344 330 335 321 316 317 308 302 295 307
76 76 75 53 60 82 81 98 103 123 130 130 125 128 155 190 179 173 176 182 183 195 189 184 187 188 190 192 196 201 206 211 216 217 201 201 196 194 191 187 185 185 177 174 182 183 184 183 188 185 185 186 185 181 180 174 192 159 174 159 150 182 157 136 117 81 74 92 35 7 337 5 5 328 311 297 314 295 310 307 294 292 295 301 299
75 83 84 92 77 65 72 80 97 99 95 91 107 139 131 159 159 166 174 177 184 194 191 191 193 195 196 198 203 209 210 214 217 211 223 217 219 211 199 194 187 187 185 180 187 187 189 187 190 190 186 189 187 183 186 187 188 179 186 182 164 182 169 169 157 175 155 171 192 216 236 345 355 314 290 313 307 284 282 305 302 294 285 279 279
74 79 88 95 104 109 107 97 83 49 37 83 114 110 128 134 156 156 154 175 187 206 203 196 202 211 211 209 208 211 218 222 221 217 215 225 222 234 226 206 195 194 188 186 191 192 193 193 194 194 191 190 189 186 189 185 197 182 197 174 166 195 187 176 155 158 173 229 309 307 249 222 270 294 315 309 291 294 281 263 264 273 278 273 269
85 79 83 88 91 96 99 101 95 82 65 53 55 63 70 82 103 102 91 55 89 180 222 216 221 229 228 224 221 210 219 225 226 224 218 211 219 239 263 232 213 200 198 192 195 193 196 197 199 197 197 195 194 192 191 187 198 185 188 166 187 190 204 163 186 200 158 208 216 283 313 294 319 311 311 295 306 310 304 292 282 275 280 285 277
99 97 89 83 83 87 89 89 90 95 97 89 76 72 69 67 58 68 94 93 75 50 33 359 294 249 220 236 237 234 232 235 233 235 227 213 209 236 264 256 231 224 210 203 201 199 199 199 200 201 201 202 199 196 193 194 196 186 182 181 189 194 189 178 195 203 213 170 219 228 251 225 253 283 288 285 291 285 286 298 303 297 292 291 291
107 102 102 108 108 103 99 96 95 94 93 92 97 102 98 89 76 68 53 50 61 54 44 13 346 308 288 253 229 232 251 252 255 248 244 231 222 216 208 239 255 241 230 217 216 207 203 203 203 203 203 202 201 199 195 198 199 190 189 186 189 186 190 190 199 201 206 195 226 230 236 248 257 268 284 308 297 286 289 292 297 293 284 279 272
114 110 104 98 91 88 86 89 94 92 86 86 89 91 89 89 91 89 93 83 34 51 79 86 258 270 286 291 286 280 259 300 331 312 320 312 273 243 219 218 230 240 241 240 220 224 212 208 208 207 206 204 202 201 197 196 198 193 193 188 188 188 190 195 194 203 179 258 219 229 262 290 277 278 284 278 301 324 312 308 305 303 294 295 293
124 115 108 103 103 99 91 90 91 94 103 104 99 89 81 80 82 87 92 97 93 80 85 85 208 199 205 211 229 234 262 253 230 250 246 227 234 249 247 228 221 230 224 238 244 229 226 216 212 212 212 208 206 209 201 196 197 190 191 188 189 189 186 193 188 204 207 198 224 255 250 245 264 279 286 305 305 304 309 304 304 305 309 310 302
136 130 123 112 99 94 95 92 87 85 83 85 88 94 94 97 94 91 77 69 58 53 69 102 94 69 64 64 54 2 300 278 286 272 260 254 247 243 240 235 242 240 246 254 243 240 228 225 218 216 216 213 211 216 215 202 198 186 190 184 189 185 187 192 191 196 197 196 213 230 238 248 259 271 278 283 303 303 294 294 290 292 292 293 295
148 152 142 130 117 107 98 88 88 88 83 86 77 75 90 92 99 87 82 78 82 99 126 102 330 339 3 14 6 340 332 327 319 289 261 249 247 260 294 357 309 283 242 242 241 240 232 225 224 221 217 217 216 210 217 214 200 184 184 182 183 183 188 186 187 199 190 191 202 220 225 240 246 357 8 340 325 307 311 301 300 302 300 297 294
171 150 144 139 128 115 108 104 100 105 100 91 97 97 88 84 76 84 88 105 119 118 113 121 146 168 125 152 247 269 287 300 281 267 264 267 253 205 202 213 251 265 260 244 242 242 240 231 228 229 222 217 216 216 222 219 204 180 182 180 180 183 187 179 184 193 184 194 201 203 207 225 78 57 28 340 323 338 300 285 290 290 290 291 289
181 163 144 130 125 126 118 105 88 77 85 95 97 98 101 101 79 67 68 46 60 43 56 50 345 72 41 247 233 238 245 250 255 254 253 258 268 270 244 212 205 220 240 245 251 247 239 240 246 238 235 221 213 215 201 184 186 183 179 177 174 179 180 181 185 183 184 199 199 197 207 111 117 175 251 251 251 244 238 275 294 300 301 300 296
187 163 149 137 130 120 112 106 103 93 87 80 55 94 95 95 86 83 98 60 358 358 350 351 339 342 321 297 273 255 249 250 252 262 267 270 271 268 260 252 247 248 245 247 244 247 249 224 254 256 240 217 121 95 127 147 166 164 174 172 168 175 181 179 184 188 196 193 204 208 205 157 183 203 215 218 225 218 226 231 240 259 276 283 292
194 176 161 152 139 125 110 99 96 100 103 95 75 325 101 70 80 357 31 9 13 305 323 314 309 313 301 296 296 286 276 277 275 276 277 272 273 273 268 263 249 238 244 248 247 243 248 252 222 111 24 186 198 124 133 128 129 137 156 161 173 169 171 180 195 190 197 207 207 209 224 221 224 227 243 214 214 219 221 220 228 234 237 244 245
206 191 167 156 139 120 110 107 128 93 96 65 49 37 60 26 9 307 26 309 302 317 314 312 305 306 307 300 292 286 282 282 286 287 293 290 278 272 268 268 264 255 242 244 246 243 248 246 193 204 196 190 148 137 127 127 120 117 128 165 170 175 180 193 193 191 206 206 219 228 238 226 235 136 219 245 262 223 207 222 225 227 233 233 237
194 182 170 155 136 115 101 97 54 94 32 1 310 350 72 198 267 297 309 314 315 302 293 299 301 296 296 294 290 291 291 291 294 292 290 288 278 272 275 269 265 254 241 242 238 238 240 241 218 221 219 190 122 143 132 127 128 124 129 202 210 167 188 182 187 192 201 219 224 235 242 241 246 219 243 260 269 276 306 259 240 237 242 229 225
200 195 173 116 118 131 125 138 232 19 306 253 245 186 266 275 227 271 287 289 285 289 295 291 287 288 289 289 287 290 296 301 300 297 293 288 287 282 274 266 258 255 246 234 238 239 234 234 233 224 201 127 136 145 141 138 134 132 127 266 204 150 184 192 208 209 218 230 241 244 250 258 259 259 267 343 281 299 297 296 294 292 286 285 277
214 214 219 248 260 257 257 271 7 272 274 290 300 287 276 275 291 279 271 268 279 285 281 283 286 286 284 284 285 287 292 292 289 288 287 283 282 279 268 262 261 261 257 250 240 241 243 229 224 215 171 132 143 151 143 144 142 146 158 216 181 158 196 209 212 216 217 231 235 235 241 245 254 268 104 99 65 294 286 290 291 289 286 283 275
229 239 240 246 251 245 235 289 269 287 287 286 296 294 287 281 276 275 279 285 280 278 281 278 275 278 283 287 288 288 287 290 290 287 281 280 279 276 270 262 257 252 251 243 248 246 237 234 220 207 163 135 143 155 151 151 152 159 177 190 167 182 200 211 217 227 231 237 240 240 248 255 258 278 126 137 135 201 267 285 290 291 289 287 283
253 255 258 244 243 286 271 266 280 274 276 274 268 263 267 271 271 271 273 270 278 282 285 287 288 289 286 281 281 286 286 285 288 284 284 282 277 274 271 257 253 253 247 247 239 242 240 231 215 189 141 145 146 160 162 157 158 175 201 183 181 197 210 224 229 231 247 254 259 190 235 257 266 271 133 152 153 192 268 284 291 292 292 288 289
266 258 273 288 289 300 299 290 276 269 270 274 276 276 273 268 263 260 262 271 275 280 279 280 284 289 288 284 283 283 284 283 282 283 282 279 274 272 268 261 255 252 254 250 233 235 226 169 163 132 123 132 136 154 171 162 169 179 215 206 217 227 233 240 262 271 266 269 270 199 194 229 242 260 128 149 163 235 281 283 287 291 290 288 288
272 266 271 294 304 285 274 269 268 271 275 272 270 268 267 268 269 266 264 265 269 271 277 279 279 279 278 276 272 270 270 274 276 277 277 275 275 272 265 259 260 256 254 254 231 225 156 128 123 119 128 132 139 153 171 167 164 185 252 339 23 50 286 304 292 281 290 284 281 289 228 210 241 47 51 46 30 11 289 288 290 284 288 286 293
276 278 301 289 281 280 281 281 280 279 275 269 267 265 261 259 258 258 260 262 265 269 272 277 279 277 274 272 270 270 274 275 274 276 279 275 269 267 262 252 247 247 253 240 110 110 120 117 115 124 130 136 145 153 150 151 153 184 94 25 52 314 309 291 289 298 290 293 289 292 69 76 78 52 52 358 316 266 268 279 279 276 277 308 326
285 288 282 276 276 275 276 273 268 265 264 261 259 257 257 258 256 257 262 266 265 267 269 271 272 270 270 268 265 265 268 273 279 278 276 272 268 263 261 257 246 240 229 151 112 112 117 115 114 102 105 122 129 130 143 157 153 138 126 197 220 279 17 301 297 286 282 279 289 285 348 107 117 151 177 220 232 242 240 261 268 272 287 291 287
290 290 284 283 280 276 274 277 274 270 270 270 267 264 263 262 260 263 267 267 269 268 269 270 270 272 269 265 263 262 261 260 264 268 269 270 267 263 253 249 251 223 163 147 140 132 126 127 125 115 109 114 121 127 144 154 156 158 166 185 234 286 83 277 281 282 287 287 284 289 158 76 354 351 332 319 303 286 274 272 275 270 267 268 268
280 285 292 291 286 281 278 273 273 272 270 268 266 266 266 267 267 272 271 272 271 269 269 270 269 268 265 264 263 261 259 255 258 260 261 261 263 263 262 242 203 178 176 176 153 141 139 136 135 133 131 136 138 134 145 151 163 176 174 193 191 227 259 275 306 294 291 293 287 293 344 344 334 331 318 300 293 285 278 276 273 274 273 273 272
283 283 282 282 281 281 279 276 273 273 270 269 270 271 270 268 269 268 266 265 263 262 262 263 263 261 259 259 257 258 261 261 258 259 264 264 260 262 244 181 146 171 176 180 164 155 150 144 141 143 147 148 141 142 151 161 167 180 185 189 201 207 221 211 249 292 296 300 322 323 304 299 306 292 281 276 271 259 253 257 261 262 262 266 276
280 279 281 281 284 286 285 283 281 280 280 278 274 270 269 267 266 264 266 265 263 261 259 260 261 264 267 267 263 258 256 258 261 262 264 272 262 186 188 190 190 185 186 181 174 151 150 145 144 150 155 149 148 150 160 169 183 187 190 196 203 206 209 209 230 271 290 299 298 297 294 281 270 260 261 278 297 306 310 293 277 265 261 263 271
281 281 281 280 280 279 279 280 280 279 278 277 276 275 273 271 267 266 265 263 263 261 259 256 256 260 258 256 262 269 271 267 266 269 264 241 196 205 203 199 192 182 185 179 164 156 150 150 157 156 147 154 162 161 171 176 187 191 190 189 214 213 212 217 229 243 244 253 273 283 298 287 275 276 275 273 267 268 268 263 262 258 257 260 268
279 284 286 285 283 282 282 282 281 280 274 271 269 268 271 273 274 269 261 256 254 254 255 255 258 262 268 270 266 262 257 258 250 250 219 184 205 206 198 186 187 181 179 167 157 136 137 151 150 144 149 150 158 128 78 73 55 29 12 356 334 347 354 322 346 5 347 323 307 287 264 258 268 268 272 294 302 300 298 302 298 298 296 293 287
285 284 284 281 281 283 283 282 279 277 279 279 274 269 264 262 260 258 256 256 255 254 257 261 262 260 257 255 255 252 247 250 213 158 44 15 215 194 153 148 134 174 154 129 130 140 135 109 101 136 145 145 97 75 62 53 65 49 32 9 359 6 4 329 25 5 329 308 298 287 291 299 301 303 305 303 305 303 301 301 302 300 298 298 295
281 282 282 283 283 282 280 280 282 282 279 277 278 278 275 270 269 272 274 268 264 262 258 254 250 249 248 246 252 265 212 173 132 121 104 75 43 42 75 114 103 76 78 76 79 91 91 96 84 44 27 80 89 94 111 92 80 78 80 67 35 356 337 313 308 306 296 294 284 301 316 318 316 316 312 308 306 308 306 305 304 303 298 295 294
286 285 285 285 287 289 289 286 285 286 284 280 275 271 269 266 264 260 257 260 259 257 249 243 241 242 242 241 227 212 144 122 134 137 117 110 95 51 43 54 79 88 85 85 87 86 86 91 97 96 67 79 103 111 99 87 90 85 34 22 319 298 282 271 279 292 289 295 320 322 324 324 321 316 312 310 310 309 310 308 306 304 301 294 289